Torna al catalogo

LUNA-2

AttivoScienzaSSO
NORAD 68470·PAYLOAD·🇺🇸 United States

Lanciato Mar 30, 2026 da Vandenberg Space Force Base

Loading…

Prossimi Passaggi (prossime 24 ore)

TLE

AggiornatoSource: Space-Track

Epoca: Sep 14, 2026, 07:46 UTC

1 68470U 26067BG  26257.32411497  .00006124  00000-0  30095-3 0  9992
2 68470  97.4573 214.2231 0008653 112.8782 247.3366 15.18373464 25457

Traccia LUNA-2 in tempo reale con AllMySat

Download on the App Store